Year,Month,Day,Hour,Minute,Value (Times are PST for windspeed in km/hr)
2013,10,01,00,00,3.10
2013,10,01,00,01,3.00
2013,10,01,00,02,4.20
2013,10,01,00,03,3.20
2013,10,01,00,04,4.20
2013,10,01,00,05,8.60
2013,10,01,00,06,4.60
2013,10,01,00,07,3.20
2013,10,01,00,08,4.70
2013,10,01,00,09,5.60
2013,10,01,00,10,4.30
2013,10,01,00,11,4.60
2013,10,01,00,12,4.70
2013,10,01,00,13,5.30
2013,10,01,00,14,5.10
2013,10,01,00,15,4.40
2013,10,01,00,16,1.90
2013,10,01,00,17,2.90
2013,10,01,00,18,2.30
2013,10,01,00,19,2.70
2013,10,01,00,20,1.90
2013,10,01,00,21,1.90
2013,10,01,00,22,1.30
2013,10,01,00,23,1.50
2013,10,01,00,24,1.50
2013,10,01,00,25,1.90
2013,10,01,00,26,1.00
2013,10,01,00,27,2.30
2013,10,01,00,28,3.60
2013,10,01,00,29,4.10
2013,10,01,00,30,3.70
2013,10,01,00,31,4.70
2013,10,01,00,32,3.50
2013,10,01,00,33,5.10
2013,10,01,00,34,2.60
2013,10,01,00,35,2.30
2013,10,01,00,36,3.00
2013,10,01,00,37,5.30
2013,10,01,00,38,5.60
2013,10,01,00,39,4.70
2013,10,01,00,40,5.30
2013,10,01,00,41,5.30
2013,10,01,00,42,4.30
2013,10,01,00,43,4.20
2013,10,01,00,44,5.00
2013,10,01,00,45,5.60
2013,10,01,00,46,7.10
2013,10,01,00,47,6.90
2013,10,01,00,48,7.00
2013,10,01,00,49,6.70
2013,10,01,00,50,6.80
2013,10,01,00,51,4.70
2013,10,01,00,52,7.70
2013,10,01,00,53,5.10
2013,10,01,00,54,3.70
2013,10,01,00,55,3.70
2013,10,01,00,56,3.90
2013,10,01,00,57,2.10
2013,10,01,00,58,1.90
2013,10,01,00,59,3.00
2013,10,01,01,00,0.80
2013,10,01,01,01,0.90
2013,10,01,01,02,0.70
2013,10,01,01,03,1.10
2013,10,01,01,04,0.30
2013,10,01,01,05,0.60
2013,10,01,01,06,0.80
2013,10,01,01,07,0.50
2013,10,01,01,08,1.00
2013,10,01,01,09,0.30
2013,10,01,01,10,0.60
2013,10,01,01,11,2.50
2013,10,01,01,12,2.10
2013,10,01,01,13,0.60
2013,10,01,01,14,0.00
2013,10,01,01,15,1.90
2013,10,01,01,16,2.10
2013,10,01,01,17,0.30
2013,10,01,01,18,1.40
2013,10,01,01,19,1.70
2013,10,01,01,20,1.90
2013,10,01,01,21,1.70
2013,10,01,01,22,3.00
2013,10,01,01,23,2.70
2013,10,01,01,24,2.00
2013,10,01,01,25,2.10
2013,10,01,01,26,2.30
2013,10,01,01,27,1.60
2013,10,01,01,28,2.30
2013,10,01,01,29,3.00
2013,10,01,01,30,2.60
2013,10,01,01,31,2.60
2013,10,01,01,32,3.40
2013,10,01,01,33,3.40
2013,10,01,01,34,4.40
2013,10,01,01,35,2.80
2013,10,01,01,36,1.10
2013,10,01,01,37,1.00
2013,10,01,01,38,2.40
2013,10,01,01,39,2.70
2013,10,01,01,40,2.00
2013,10,01,01,41,1.30
2013,10,01,01,42,0.60
2013,10,01,01,43,1.50
2013,10,01,01,44,2.70
2013,10,01,01,45,3.20
2013,10,01,01,46,3.10
2013,10,01,01,47,3.20
2013,10,01,01,48,2.70
2013,10,01,01,49,2.30
2013,10,01,01,50,1.90
2013,10,01,01,51,2.40
2013,10,01,01,52,2.00
2013,10,01,01,53,1.70
2013,10,01,01,54,2.40
2013,10,01,01,55,3.60
2013,10,01,01,56,4.40
2013,10,01,01,57,3.60
2013,10,01,01,58,3.70
2013,10,01,01,59,3.60
2013,10,01,02,00,4.30
2013,10,01,02,01,4.90
2013,10,01,02,02,4.90
2013,10,01,02,03,4.90
2013,10,01,02,04,5.30
2013,10,01,02,05,4.30
2013,10,01,02,06,4.10
2013,10,01,02,07,4.50
2013,10,01,02,08,4.70
2013,10,01,02,09,3.50
2013,10,01,02,10,2.70
2013,10,01,02,11,3.80
2013,10,01,02,12,5.60
2013,10,01,02,13,5.70
2013,10,01,02,14,5.30
2013,10,01,02,15,4.10
2013,10,01,02,16,4.50
2013,10,01,02,17,4.30
2013,10,01,02,18,4.40
2013,10,01,02,19,3.60
2013,10,01,02,20,3.40
2013,10,01,02,21,2.50
2013,10,01,02,22,3.50
2013,10,01,02,23,3.60
2013,10,01,02,24,3.40
2013,10,01,02,25,3.30
2013,10,01,02,26,2.70
2013,10,01,02,27,2.50
2013,10,01,02,28,2.50
2013,10,01,02,29,1.90
2013,10,01,02,30,2.10
2013,10,01,02,31,0.60
2013,10,01,02,32,1.40
2013,10,01,02,33,2.10
2013,10,01,02,34,1.80
2013,10,01,02,35,1.50
2013,10,01,02,36,0.80
2013,10,01,02,37,0.80
2013,10,01,02,38,0.20
2013,10,01,02,39,0.00
2013,10,01,02,40,0.00
2013,10,01,02,41,0.50
2013,10,01,02,42,1.20
2013,10,01,02,43,1.00
2013,10,01,02,44,0.10
2013,10,01,02,45,0.40
2013,10,01,02,46,1.10
2013,10,01,02,47,1.60
2013,10,01,02,48,1.20
2013,10,01,02,49,2.30
2013,10,01,02,50,3.60
2013,10,01,02,51,4.10
2013,10,01,02,52,2.60
2013,10,01,02,53,1.90
2013,10,01,02,54,2.70
2013,10,01,02,55,3.60
2013,10,01,02,56,5.70
2013,10,01,02,57,5.00
2013,10,01,02,58,3.60
2013,10,01,02,59,3.90
2013,10,01,03,00,3.40
2013,10,01,03,01,5.20
2013,10,01,03,02,2.60
2013,10,01,03,03,1.10
2013,10,01,03,04,1.20
2013,10,01,03,05,2.30
2013,10,01,03,06,2.90
2013,10,01,03,07,3.00
2013,10,01,03,08,4.70
2013,10,01,03,09,5.60
2013,10,01,03,10,5.30
2013,10,01,03,11,4.20
2013,10,01,03,12,4.10
2013,10,01,03,13,4.20
2013,10,01,03,14,4.20
2013,10,01,03,15,2.80
2013,10,01,03,16,2.50
2013,10,01,03,17,1.40
2013,10,01,03,18,2.10
2013,10,01,03,19,2.30
2013,10,01,03,20,2.30
2013,10,01,03,21,0.50
2013,10,01,03,22,1.80
2013,10,01,03,23,3.40
2013,10,01,03,24,2.40
2013,10,01,03,25,3.00
2013,10,01,03,26,2.20
2013,10,01,03,27,2.80
2013,10,01,03,28,5.20
2013,10,01,03,29,5.70
2013,10,01,03,30,4.20
2013,10,01,03,31,4.50
2013,10,01,03,32,5.30
2013,10,01,03,33,5.00
2013,10,01,03,34,5.00
2013,10,01,03,35,4.30
2013,10,01,03,36,3.60
2013,10,01,03,37,3.00
2013,10,01,03,38,1.80
2013,10,01,03,39,1.90
2013,10,01,03,40,2.40
2013,10,01,03,41,1.60
2013,10,01,03,42,0.60
2013,10,01,03,43,0.30
2013,10,01,03,44,0.20
2013,10,01,03,45,0.00
2013,10,01,03,46,0.20
2013,10,01,03,47,0.50
2013,10,01,03,48,1.10
2013,10,01,03,49,1.00
2013,10,01,03,50,1.00
2013,10,01,03,51,0.20
2013,10,01,03,52,0.00
2013,10,01,03,53,0.00
2013,10,01,03,54,0.00
2013,10,01,03,55,0.60
2013,10,01,03,56,1.50
2013,10,01,03,57,0.60
2013,10,01,03,58,0.80
2013,10,01,03,59,1.10
2013,10,01,04,00,0.60
2013,10,01,04,01,0.10
2013,10,01,04,02,0.00
2013,10,01,04,03,0.00
2013,10,01,04,04,0.00
2013,10,01,04,05,0.00
2013,10,01,04,06,0.10
2013,10,01,04,07,0.90
2013,10,01,04,08,1.10
2013,10,01,04,09,1.00
2013,10,01,04,10,1.80
2013,10,01,04,11,2.70
2013,10,01,04,12,3.00
2013,10,01,04,13,3.00
2013,10,01,04,14,2.80
2013,10,01,04,15,2.30
2013,10,01,04,16,2.30
2013,10,01,04,17,2.40
2013,10,01,04,18,2.20
2013,10,01,04,19,1.80
2013,10,01,04,20,1.60
2013,10,01,04,21,1.40
2013,10,01,04,22,1.00
2013,10,01,04,23,1.10
2013,10,01,04,24,1.20
2013,10,01,04,25,1.10
2013,10,01,04,26,0.70
2013,10,01,04,27,1.20
2013,10,01,04,28,0.90
2013,10,01,04,29,1.40
2013,10,01,04,30,1.50
2013,10,01,04,31,1.30
2013,10,01,04,32,1.40
2013,10,01,04,33,0.80
2013,10,01,04,34,0.00
2013,10,01,04,35,0.00
2013,10,01,04,36,0.30
2013,10,01,04,37,0.80
2013,10,01,04,38,1.10
2013,10,01,04,39,0.40
2013,10,01,04,40,0.10
2013,10,01,04,41,1.40
2013,10,01,04,42,2.60
2013,10,01,04,43,3.00
2013,10,01,04,44,3.10
2013,10,01,04,45,3.70
2013,10,01,04,46,3.10
2013,10,01,04,47,2.80
2013,10,01,04,48,3.30
2013,10,01,04,49,2.30
2013,10,01,04,50,1.10
2013,10,01,04,51,0.00
2013,10,01,04,52,1.70
2013,10,01,04,53,2.30
2013,10,01,04,54,2.40
2013,10,01,04,55,1.50
2013,10,01,04,56,1.00
2013,10,01,04,57,0.00
2013,10,01,04,58,0.10
2013,10,01,04,59,0.70
2013,10,01,05,00,0.60
2013,10,01,05,01,0.10
2013,10,01,05,02,0.50
2013,10,01,05,03,1.60
2013,10,01,05,04,2.40
2013,10,01,05,05,3.60
2013,10,01,05,06,3.40
2013,10,01,05,07,3.10
2013,10,01,05,08,2.60
2013,10,01,05,09,3.80
2013,10,01,05,10,4.20
2013,10,01,05,11,3.50
2013,10,01,05,12,3.90
2013,10,01,05,13,4.00
2013,10,01,05,14,2.50
2013,10,01,05,15,3.20
2013,10,01,05,16,4.30
2013,10,01,05,17,4.60
2013,10,01,05,18,4.20
2013,10,01,05,19,3.10
2013,10,01,05,20,3.40
2013,10,01,05,21,3.40
2013,10,01,05,22,4.00
2013,10,01,05,23,3.10
2013,10,01,05,24,1.20
2013,10,01,05,25,1.10
2013,10,01,05,26,1.70
2013,10,01,05,27,1.40
2013,10,01,05,28,1.20
2013,10,01,05,29,1.00
2013,10,01,05,30,0.30
2013,10,01,05,31,1.20
2013,10,01,05,32,1.50
2013,10,01,05,33,1.30
2013,10,01,05,34,0.40
2013,10,01,05,35,0.60
2013,10,01,05,36,1.00
2013,10,01,05,37,1.30
2013,10,01,05,38,1.70
2013,10,01,05,39,1.70
2013,10,01,05,40,1.10
2013,10,01,05,41,0.80
2013,10,01,05,42,0.20
2013,10,01,05,43,0.10
2013,10,01,05,44,0.20
2013,10,01,05,45,0.00
2013,10,01,05,46,0.00
2013,10,01,05,47,0.00
2013,10,01,05,48,0.00
2013,10,01,05,49,0.00
2013,10,01,05,50,0.40
2013,10,01,05,51,1.60
2013,10,01,05,52,1.50
2013,10,01,05,53,1.10
2013,10,01,05,54,0.80
2013,10,01,05,55,0.70
2013,10,01,05,56,1.10
2013,10,01,05,57,1.20
2013,10,01,05,58,1.30
2013,10,01,05,59,1.10
2013,10,01,06,00,1.40
2013,10,01,06,01,0.20
2013,10,01,06,02,0.00
2013,10,01,06,03,0.70
2013,10,01,06,04,2.00
2013,10,01,06,05,0.70
2013,10,01,06,06,0.60
2013,10,01,06,07,0.20
2013,10,01,06,08,0.10
2013,10,01,06,09,0.90
2013,10,01,06,10,0.60
2013,10,01,06,11,1.10
2013,10,01,06,12,1.10
2013,10,01,06,13,1.50
2013,10,01,06,14,1.50
2013,10,01,06,15,1.60
2013,10,01,06,16,1.50
2013,10,01,06,17,1.30
2013,10,01,06,18,1.50
2013,10,01,06,19,2.00
2013,10,01,06,20,1.80
2013,10,01,06,21,1.30
2013,10,01,06,22,1.90
2013,10,01,06,23,2.00
2013,10,01,06,24,3.10
2013,10,01,06,25,3.00
2013,10,01,06,26,3.60
2013,10,01,06,27,5.20
2013,10,01,06,28,4.30
2013,10,01,06,29,3.80
2013,10,01,06,30,4.70
2013,10,01,06,31,7.40
2013,10,01,06,32,8.80
2013,10,01,06,33,7.30
2013,10,01,06,34,6.60
2013,10,01,06,35,8.10
2013,10,01,06,36,7.30
2013,10,01,06,37,6.30
2013,10,01,06,38,4.20
2013,10,01,06,39,6.00
2013,10,01,06,40,4.50
2013,10,01,06,41,4.70
2013,10,01,06,42,4.70
2013,10,01,06,43,4.70
2013,10,01,06,44,3.40
2013,10,01,06,45,2.40
2013,10,01,06,46,2.40
2013,10,01,06,47,1.80
2013,10,01,06,48,2.20
2013,10,01,06,49,1.70
2013,10,01,06,50,2.00
2013,10,01,06,51,1.80
2013,10,01,06,52,2.30
2013,10,01,06,53,2.60
2013,10,01,06,54,1.40
2013,10,01,06,55,2.20
2013,10,01,06,56,3.10
2013,10,01,06,57,3.20
2013,10,01,06,58,4.00
2013,10,01,06,59,3.70
2013,10,01,07,00,4.50
2013,10,01,07,01,4.60
2013,10,01,07,02,4.10
2013,10,01,07,03,2.40
2013,10,01,07,04,1.60
2013,10,01,07,05,3.00
2013,10,01,07,06,2.30
2013,10,01,07,07,2.40
2013,10,01,07,08,1.80
2013,10,01,07,09,1.10
2013,10,01,07,10,2.60
2013,10,01,07,11,3.90
2013,10,01,07,12,3.30
2013,10,01,07,13,1.30
2013,10,01,07,14,1.70
2013,10,01,07,15,0.80
2013,10,01,07,16,1.10
2013,10,01,07,17,0.20
2013,10,01,07,18,0.00
2013,10,01,07,19,0.30
2013,10,01,07,20,1.10
2013,10,01,07,21,1.30
2013,10,01,07,22,0.90
2013,10,01,07,23,1.10
2013,10,01,07,24,0.70
2013,10,01,07,25,0.60
2013,10,01,07,26,0.90
2013,10,01,07,27,0.60
2013,10,01,07,28,0.90
2013,10,01,07,29,0.60
2013,10,01,07,30,0.10
2013,10,01,07,31,0.00
2013,10,01,07,32,0.00
2013,10,01,07,33,0.00
2013,10,01,07,34,0.00
2013,10,01,07,35,0.00
2013,10,01,07,36,0.00
2013,10,01,07,37,0.00
2013,10,01,07,38,0.00
2013,10,01,07,39,0.00
2013,10,01,07,40,0.00
2013,10,01,07,41,0.00
2013,10,01,07,42,0.00
2013,10,01,07,43,0.00
2013,10,01,07,44,0.00
2013,10,01,07,45,0.00
2013,10,01,07,46,0.00
2013,10,01,07,47,0.00
2013,10,01,07,48,0.00
2013,10,01,07,49,0.00
2013,10,01,07,50,0.00
2013,10,01,07,51,0.00
2013,10,01,07,52,0.00
2013,10,01,07,53,0.00
2013,10,01,07,54,0.00
2013,10,01,07,55,0.00
2013,10,01,07,56,0.00
2013,10,01,07,57,0.00
2013,10,01,07,58,0.00
2013,10,01,07,59,0.00
2013,10,01,08,00,1.30
2013,10,01,08,01,2.50
2013,10,01,08,02,3.50
2013,10,01,08,03,3.60
2013,10,01,08,04,3.70
2013,10,01,08,05,4.50
2013,10,01,08,06,5.00
2013,10,01,08,07,4.30
2013,10,01,08,08,3.00
2013,10,01,08,09,3.70
2013,10,01,08,10,2.00
2013,10,01,08,11,2.70
2013,10,01,08,12,3.00
2013,10,01,08,13,3.70
2013,10,01,08,14,3.00
2013,10,01,08,15,5.40
2013,10,01,08,16,4.10
2013,10,01,08,17,4.40
2013,10,01,08,18,3.80
2013,10,01,08,19,4.10
2013,10,01,08,20,3.40
2013,10,01,08,21,3.60
2013,10,01,08,22,3.10
2013,10,01,08,23,3.00
2013,10,01,08,24,4.30
2013,10,01,08,25,4.20
2013,10,01,08,26,3.40
2013,10,01,08,27,3.00
2013,10,01,08,28,1.90
2013,10,01,08,29,2.00
2013,10,01,08,30,2.80
2013,10,01,08,31,3.20
2013,10,01,08,32,2.60
2013,10,01,08,33,1.20
2013,10,01,08,34,0.00
2013,10,01,08,35,0.00
2013,10,01,08,36,0.80
2013,10,01,08,37,1.50
2013,10,01,08,38,1.10
2013,10,01,08,39,1.30
2013,10,01,08,40,1.30
2013,10,01,08,41,2.80
2013,10,01,08,42,2.60
2013,10,01,08,43,2.10
2013,10,01,08,44,1.80
2013,10,01,08,45,2.40
2013,10,01,08,46,2.10
2013,10,01,08,47,1.80
2013,10,01,08,48,0.20
2013,10,01,08,49,0.00
2013,10,01,08,50,0.00
2013,10,01,08,51,0.00
2013,10,01,08,52,0.40
2013,10,01,08,53,1.10
2013,10,01,08,54,0.50
2013,10,01,08,55,0.00
2013,10,01,08,56,0.00
2013,10,01,08,57,0.00
2013,10,01,08,58,0.00
2013,10,01,08,59,0.20
2013,10,01,09,00,0.70
2013,10,01,09,01,0.90
2013,10,01,09,02,0.00
2013,10,01,09,03,0.00
2013,10,01,09,04,0.00
2013,10,01,09,05,0.00
2013,10,01,09,06,0.00
2013,10,01,09,07,0.00
2013,10,01,09,08,0.90
2013,10,01,09,09,1.10
2013,10,01,09,10,1.60
2013,10,01,09,11,1.90
2013,10,01,09,12,2.10
2013,10,01,09,13,2.00
2013,10,01,09,14,2.50
2013,10,01,09,15,2.30
2013,10,01,09,16,2.50
2013,10,01,09,17,2.60
2013,10,01,09,18,2.50
2013,10,01,09,19,2.40
2013,10,01,09,20,2.10
2013,10,01,09,21,2.40
2013,10,01,09,22,3.80
2013,10,01,09,23,2.90
2013,10,01,09,24,2.30
2013,10,01,09,25,3.10
2013,10,01,09,26,3.90
2013,10,01,09,27,4.70
2013,10,01,09,28,4.60
2013,10,01,09,29,3.60
2013,10,01,09,30,3.50
2013,10,01,09,31,4.70
2013,10,01,09,32,2.30
2013,10,01,09,33,1.50
2013,10,01,09,34,2.50
2013,10,01,09,35,2.80
2013,10,01,09,36,1.90
2013,10,01,09,37,0.70
2013,10,01,09,38,3.10
2013,10,01,09,39,2.90
2013,10,01,09,40,2.30
2013,10,01,09,41,0.60
2013,10,01,09,42,0.60
2013,10,01,09,43,3.50
2013,10,01,09,44,3.00
2013,10,01,09,45,0.80
2013,10,01,09,46,2.50
2013,10,01,09,47,1.40
2013,10,01,09,48,0.30
2013,10,01,09,49,0.20
2013,10,01,09,50,2.30
2013,10,01,09,51,2.50
2013,10,01,09,52,3.20
2013,10,01,09,53,3.10
2013,10,01,09,54,2.20
2013,10,01,09,55,2.70
2013,10,01,09,56,5.10
2013,10,01,09,57,3.80
2013,10,01,09,58,3.50
2013,10,01,09,59,2.00
2013,10,01,10,00,0.90
2013,10,01,10,01,1.20
2013,10,01,10,02,1.50
2013,10,01,10,03,0.60
2013,10,01,10,04,1.00
2013,10,01,10,05,1.60
2013,10,01,10,06,2.60
2013,10,01,10,07,3.40
2013,10,01,10,08,4.70
2013,10,01,10,09,2.50
2013,10,01,10,10,4.30
2013,10,01,10,11,4.50
2013,10,01,10,12,2.20
2013,10,01,10,13,0.70
2013,10,01,10,14,2.10
2013,10,01,10,15,2.00
2013,10,01,10,16,3.50
2013,10,01,10,17,1.40
2013,10,01,10,18,1.10
2013,10,01,10,19,1.40
2013,10,01,10,20,1.80
2013,10,01,10,21,2.20
2013,10,01,10,22,1.50
2013,10,01,10,23,3.90
2013,10,01,10,24,4.80
2013,10,01,10,25,4.10
2013,10,01,10,26,5.20
2013,10,01,10,27,6.30
2013,10,01,10,28,4.10
2013,10,01,10,29,7.00
2013,10,01,10,30,6.10
2013,10,01,10,31,5.10
2013,10,01,10,32,5.10
2013,10,01,10,33,4.00
2013,10,01,10,34,3.40
2013,10,01,10,35,7.50
2013,10,01,10,36,5.60
2013,10,01,10,37,4.90
2013,10,01,10,38,4.50
2013,10,01,10,39,5.00
2013,10,01,10,40,3.80
2013,10,01,10,41,7.10
2013,10,01,10,42,5.70
2013,10,01,10,43,4.90
2013,10,01,10,44,4.90
2013,10,01,10,45,9.10
2013,10,01,10,46,6.40
2013,10,01,10,47,3.70
2013,10,01,10,48,4.20
2013,10,01,10,49,5.90
2013,10,01,10,50,6.20
2013,10,01,10,51,5.90
2013,10,01,10,52,4.50
2013,10,01,10,53,5.60
2013,10,01,10,54,5.10
2013,10,01,10,55,4.50
2013,10,01,10,56,3.50
2013,10,01,10,57,5.10
2013,10,01,10,58,6.10
2013,10,01,10,59,8.50
2013,10,01,11,00,6.10
2013,10,01,11,01,8.70
2013,10,01,11,02,10.90
2013,10,01,11,03,8.90
2013,10,01,11,04,10.30
2013,10,01,11,05,9.60
2013,10,01,11,06,9.50
2013,10,01,11,07,5.30
2013,10,01,11,08,3.60
2013,10,01,11,09,2.60
2013,10,01,11,10,4.60
2013,10,01,11,11,9.70
2013,10,01,11,12,7.60
2013,10,01,11,13,10.30
2013,10,01,11,14,6.80
2013,10,01,11,15,7.20
2013,10,01,11,16,6.00
2013,10,01,11,17,5.00
2013,10,01,11,18,5.90
2013,10,01,11,19,5.60
2013,10,01,11,20,4.70
2013,10,01,11,21,8.50
2013,10,01,11,22,8.10
2013,10,01,11,23,6.80
2013,10,01,11,24,4.40
2013,10,01,11,25,5.50
2013,10,01,11,26,5.20
2013,10,01,11,27,7.70
2013,10,01,11,28,6.30
2013,10,01,11,29,4.60
2013,10,01,11,30,3.90
2013,10,01,11,31,6.20
2013,10,01,11,32,8.90
2013,10,01,11,33,6.30
2013,10,01,11,34,1.20
2013,10,01,11,35,3.20
2013,10,01,11,36,6.20
2013,10,01,11,37,9.00
2013,10,01,11,38,2.90
2013,10,01,11,39,9.70
2013,10,01,11,40,8.90
2013,10,01,11,41,10.50
2013,10,01,11,42,8.10
2013,10,01,11,43,8.30
2013,10,01,11,44,11.10
2013,10,01,11,45,10.30
2013,10,01,11,46,7.80
2013,10,01,11,47,6.70
2013,10,01,11,48,8.30
2013,10,01,11,49,9.70
2013,10,01,11,50,3.00
2013,10,01,11,51,1.10
2013,10,01,11,52,3.20
2013,10,01,11,53,7.10
2013,10,01,11,54,7.50
2013,10,01,11,55,6.00
2013,10,01,11,56,4.70
2013,10,01,11,57,4.20
2013,10,01,11,58,6.80
2013,10,01,11,59,5.10
2013,10,01,12,00,5.80
2013,10,01,12,01,4.60
2013,10,01,12,02,7.00
2013,10,01,12,03,7.40
2013,10,01,12,04,7.60
2013,10,01,12,05,6.90
2013,10,01,12,06,5.30
2013,10,01,12,07,6.80
2013,10,01,12,08,5.50
2013,10,01,12,09,5.50
2013,10,01,12,10,3.10
2013,10,01,12,11,3.90
2013,10,01,12,12,6.20
2013,10,01,12,13,7.60
2013,10,01,12,14,6.70
2013,10,01,12,15,5.40
2013,10,01,12,16,4.70
2013,10,01,12,17,6.00
2013,10,01,12,18,7.80
2013,10,01,12,19,8.30
2013,10,01,12,20,5.90
2013,10,01,12,21,6.70
2013,10,01,12,22,7.20
2013,10,01,12,23,10.50
2013,10,01,12,24,9.20
2013,10,01,12,25,6.90
2013,10,01,12,26,7.60
2013,10,01,12,27,7.10
2013,10,01,12,28,8.20
2013,10,01,12,29,7.90
2013,10,01,12,30,5.70
2013,10,01,12,31,6.60
2013,10,01,12,32,6.50
2013,10,01,12,33,7.00
2013,10,01,12,34,10.90
2013,10,01,12,35,8.90
2013,10,01,12,36,9.10
2013,10,01,12,37,9.50
2013,10,01,12,38,9.50
2013,10,01,12,39,8.70
2013,10,01,12,40,9.80
2013,10,01,12,41,10.00
2013,10,01,12,42,8.60
2013,10,01,12,43,8.00
2013,10,01,12,44,5.80
2013,10,01,12,45,5.90
2013,10,01,12,46,7.50
2013,10,01,12,47,5.80
2013,10,01,12,48,7.90
2013,10,01,12,49,8.30
2013,10,01,12,50,8.30
2013,10,01,12,51,11.00
2013,10,01,12,52,9.00
2013,10,01,12,53,8.20
2013,10,01,12,54,10.10
2013,10,01,12,55,10.50
2013,10,01,12,56,10.70
2013,10,01,12,57,6.60
2013,10,01,12,58,9.40
2013,10,01,12,59,9.70
2013,10,01,13,00,8.60
2013,10,01,13,01,4.70
2013,10,01,13,02,7.30
2013,10,01,13,03,8.80
2013,10,01,13,04,13.80
2013,10,01,13,05,13.60
2013,10,01,13,06,13.30
2013,10,01,13,07,9.40
2013,10,01,13,08,5.10
2013,10,01,13,09,8.60
2013,10,01,13,10,10.40
2013,10,01,13,11,6.40
2013,10,01,13,12,8.40
2013,10,01,13,13,6.80
2013,10,01,13,14,12.00
2013,10,01,13,15,12.00
2013,10,01,13,16,10.90
2013,10,01,13,17,8.30
2013,10,01,13,18,7.60
2013,10,01,13,19,10.10
2013,10,01,13,20,7.60
2013,10,01,13,21,6.40
2013,10,01,13,22,6.60
2013,10,01,13,23,8.50
2013,10,01,13,24,7.10
2013,10,01,13,25,8.40
2013,10,01,13,26,16.90
2013,10,01,13,27,11.60
2013,10,01,13,28,11.60
2013,10,01,13,29,10.80
2013,10,01,13,30,11.80
2013,10,01,13,31,15.20
2013,10,01,13,32,12.30
2013,10,01,13,33,10.50
2013,10,01,13,34,12.60
2013,10,01,13,35,14.80
2013,10,01,13,36,14.50
2013,10,01,13,37,14.10
2013,10,01,13,38,14.20
2013,10,01,13,39,7.70
2013,10,01,13,40,9.60
2013,10,01,13,41,13.50
2013,10,01,13,42,8.10
2013,10,01,13,43,7.70
2013,10,01,13,44,9.20
2013,10,01,13,45,9.70
2013,10,01,13,46,9.30
2013,10,01,13,47,9.50
2013,10,01,13,48,8.40
2013,10,01,13,49,9.50
2013,10,01,13,50,11.20
2013,10,01,13,51,12.10
2013,10,01,13,52,9.60
2013,10,01,13,53,10.50
2013,10,01,13,54,7.70
2013,10,01,13,55,8.30
2013,10,01,13,56,11.30
2013,10,01,13,57,10.20
2013,10,01,13,58,10.80
2013,10,01,13,59,12.60
2013,10,01,14,00,13.10
2013,10,01,14,01,12.40
2013,10,01,14,02,7.90
2013,10,01,14,03,6.90
2013,10,01,14,04,8.40
2013,10,01,14,05,7.00
2013,10,01,14,06,12.80
2013,10,01,14,07,8.80
2013,10,01,14,08,10.00
2013,10,01,14,09,11.70
2013,10,01,14,10,8.50
2013,10,01,14,11,9.80
2013,10,01,14,12,7.40
2013,10,01,14,13,5.20
2013,10,01,14,14,6.20
2013,10,01,14,15,6.00
2013,10,01,14,16,12.50
2013,10,01,14,17,7.50
2013,10,01,14,18,6.70
2013,10,01,14,19,5.00
2013,10,01,14,20,8.40
2013,10,01,14,21,13.40
2013,10,01,14,22,11.00
2013,10,01,14,23,11.30
2013,10,01,14,24,10.00
2013,10,01,14,25,8.00
2013,10,01,14,26,9.40
2013,10,01,14,27,11.10
2013,10,01,14,28,12.10
2013,10,01,14,29,8.50
2013,10,01,14,30,9.90
2013,10,01,14,31,10.70
2013,10,01,14,32,10.40
2013,10,01,14,33,9.20
2013,10,01,14,34,8.70
2013,10,01,14,35,12.70
2013,10,01,14,36,7.20
2013,10,01,14,37,11.20
2013,10,01,14,38,10.80
2013,10,01,14,39,10.70
2013,10,01,14,40,11.10
2013,10,01,14,41,10.30
2013,10,01,14,42,10.70
2013,10,01,14,43,14.20
2013,10,01,14,44,10.00
2013,10,01,14,45,10.20
2013,10,01,14,46,7.00
2013,10,01,14,47,8.00
2013,10,01,14,48,6.20
2013,10,01,14,49,8.70
2013,10,01,14,50,8.70
2013,10,01,14,51,7.70
2013,10,01,14,52,8.10
2013,10,01,14,53,8.70
2013,10,01,14,54,9.10
2013,10,01,14,55,12.60
2013,10,01,14,56,7.80
2013,10,01,14,57,13.10
2013,10,01,14,58,9.90
2013,10,01,14,59,11.90
2013,10,01,15,00,11.30
2013,10,01,15,01,8.30
2013,10,01,15,02,10.00
2013,10,01,15,03,7.00
2013,10,01,15,04,7.60
2013,10,01,15,05,7.70
2013,10,01,15,06,8.40
2013,10,01,15,07,4.80
2013,10,01,15,08,7.80
2013,10,01,15,09,10.70
2013,10,01,15,10,6.00
2013,10,01,15,11,4.50
2013,10,01,15,12,6.00
2013,10,01,15,13,5.90
2013,10,01,15,14,8.30
2013,10,01,15,15,8.10
2013,10,01,15,16,8.90
2013,10,01,15,17,7.20
2013,10,01,15,18,6.60
2013,10,01,15,19,3.70
2013,10,01,15,20,4.70
2013,10,01,15,21,7.10
2013,10,01,15,22,7.70
2013,10,01,15,23,6.70
2013,10,01,15,24,8.10
2013,10,01,15,25,7.40
2013,10,01,15,26,9.30
2013,10,01,15,27,7.20
2013,10,01,15,28,5.30
2013,10,01,15,29,6.00
2013,10,01,15,30,5.60
2013,10,01,15,31,5.90
2013,10,01,15,32,1.90
2013,10,01,15,33,5.70
2013,10,01,15,34,6.90
2013,10,01,15,35,4.10
2013,10,01,15,36,6.10
2013,10,01,15,37,6.50
2013,10,01,15,38,7.60
2013,10,01,15,39,6.80
2013,10,01,15,40,6.30
2013,10,01,15,41,6.20
2013,10,01,15,42,7.20
2013,10,01,15,43,5.60
2013,10,01,15,44,4.20
2013,10,01,15,45,3.80
2013,10,01,15,46,3.10
2013,10,01,15,47,5.20
2013,10,01,15,48,7.50
2013,10,01,15,49,5.40
2013,10,01,15,50,4.30
2013,10,01,15,51,2.10
2013,10,01,15,52,1.90
2013,10,01,15,53,0.60
2013,10,01,15,54,3.20
2013,10,01,15,55,2.50
2013,10,01,15,56,2.70
2013,10,01,15,57,3.50
2013,10,01,15,58,1.90
2013,10,01,15,59,1.20
2013,10,01,16,00,1.70
2013,10,01,16,01,1.90
2013,10,01,16,02,1.90
2013,10,01,16,03,1.70
2013,10,01,16,04,1.90
2013,10,01,16,05,2.50
2013,10,01,16,06,1.20
2013,10,01,16,07,1.50
2013,10,01,16,08,1.90
2013,10,01,16,09,1.80
2013,10,01,16,10,1.70
2013,10,01,16,11,1.40
2013,10,01,16,12,1.90
2013,10,01,16,13,2.20
2013,10,01,16,14,2.30
2013,10,01,16,15,2.40
2013,10,01,16,16,2.90
2013,10,01,16,17,3.70
2013,10,01,16,18,3.40
2013,10,01,16,19,3.20
2013,10,01,16,20,3.00
2013,10,01,16,21,2.60
2013,10,01,16,22,2.70
2013,10,01,16,23,0.80
2013,10,01,16,24,0.60
2013,10,01,16,25,3.00
2013,10,01,16,26,3.40
2013,10,01,16,27,2.90
2013,10,01,16,28,2.50
2013,10,01,16,29,2.10
2013,10,01,16,30,2.40
2013,10,01,16,31,2.90
2013,10,01,16,32,2.90
2013,10,01,16,33,1.20
2013,10,01,16,34,1.10
2013,10,01,16,35,1.10
2013,10,01,16,36,1.20
2013,10,01,16,37,1.60
2013,10,01,16,38,0.50
2013,10,01,16,39,0.80
2013,10,01,16,40,0.50
2013,10,01,16,41,1.10
2013,10,01,16,42,1.60
2013,10,01,16,43,5.30
2013,10,01,16,44,6.30
2013,10,01,16,45,5.70
2013,10,01,16,46,5.80
2013,10,01,16,47,4.70
2013,10,01,16,48,4.10
2013,10,01,16,49,3.40
2013,10,01,16,50,3.70
2013,10,01,16,51,3.20
2013,10,01,16,52,3.70
2013,10,01,16,53,3.00
2013,10,01,16,54,2.30
2013,10,01,16,55,2.30
2013,10,01,16,56,3.20
2013,10,01,16,57,4.20
2013,10,01,16,58,3.90
2013,10,01,16,59,2.00
2013,10,01,17,00,2.40
2013,10,01,17,01,2.20
2013,10,01,17,02,2.70
2013,10,01,17,03,2.30
2013,10,01,17,04,3.50
2013,10,01,17,05,4.30
2013,10,01,17,06,4.80
2013,10,01,17,07,3.30
2013,10,01,17,08,2.30
2013,10,01,17,09,1.30
2013,10,01,17,10,0.70
2013,10,01,17,11,1.20
2013,10,01,17,12,0.50
2013,10,01,17,13,0.00
2013,10,01,17,14,0.00
2013,10,01,17,15,0.10
2013,10,01,17,16,1.10
2013,10,01,17,17,1.50
2013,10,01,17,18,1.00
2013,10,01,17,19,0.80
2013,10,01,17,20,0.70
2013,10,01,17,21,1.00
2013,10,01,17,22,2.10
2013,10,01,17,23,2.10
2013,10,01,17,24,1.70
2013,10,01,17,25,0.70
2013,10,01,17,26,0.30
2013,10,01,17,27,0.60
2013,10,01,17,28,0.60
2013,10,01,17,29,1.30
2013,10,01,17,30,1.40
2013,10,01,17,31,0.20
2013,10,01,17,32,0.10
2013,10,01,17,33,0.10
2013,10,01,17,34,0.00
2013,10,01,17,35,0.90
2013,10,01,17,36,0.60
2013,10,01,17,37,0.90
2013,10,01,17,38,0.20
2013,10,01,17,39,0.40
2013,10,01,17,40,1.40
2013,10,01,17,41,2.90
2013,10,01,17,42,2.50
2013,10,01,17,43,0.90
2013,10,01,17,44,1.70
2013,10,01,17,45,4.00
2013,10,01,17,46,4.30
2013,10,01,17,47,4.70
2013,10,01,17,48,3.30
2013,10,01,17,49,3.50
2013,10,01,17,50,3.50
2013,10,01,17,51,3.10
2013,10,01,17,52,1.80
2013,10,01,17,53,0.90
2013,10,01,17,54,1.40
2013,10,01,17,55,0.30
2013,10,01,17,56,0.90
2013,10,01,17,57,1.00
2013,10,01,17,58,0.60
2013,10,01,17,59,0.80
2013,10,01,18,00,1.10
2013,10,01,18,01,1.50
2013,10,01,18,02,2.90
2013,10,01,18,03,3.50